Flag for U.S.A. Weather past 2 weeks in Torrance, California, U.S.A.

Now
52 °F

Clear.


Feels Like: 52 °F
Forecast: 54 / 80 °F
Wind: No wind

Location: Hawthorne Municipal Airport

Current Time: Mar 6, 2015 at 5:14:20 AM

Latest Report: Mar 6, 2015 at 4:53 AM


Visibility: 10 mi

Pressure: 30.13 "Hg

Humidity: 43%

Dew point: 30 °F

Location of TorranceLocation

Historic Weather in Torrance — Graph

°F

Torrance temperature yesterday

Maximum temperature yesterday: 76 °F (at 12:53 PM)
Minimum temperature yesterday: 52 °F (at 4:53 AM)
Average temperature yesterday: 64 °F

Past Weeks' High & Low Weather Summary

 TemperatureHumidityPressure
High76 °F (Mar 5, 12:53 PM)93% (Feb 23, 2:53 AM)30.27 "Hg (Feb 23, 2:53 AM)
Low48 °F (Feb 24, 4:53 AM)9% (Mar 5, 1:53 PM)29.75 "Hg (Feb 27, 11:53 PM)
Average60 °F64%29.98 "Hg
* Reported Feb 19 3:53 AM — Mar 6 3:53 AM, Torrance, Weather by CustomWeather, © 2015

Note: Actual official high and low records may vary slightly from our data, if they occured in-between our weather recording intervals... More about our weather records

Advertising

Torrance weather history for previous 24 hours

 ConditionsComfort  
Time TempWeatherWind HumidityBarometerVisibility
3:53 AM
Fri, Mar 6
54 °FClear.No wind37%30.12 "Hg10 mi
2:53 AM52 °FClear.No wind49%30.12 "Hg10 mi
1:53 AM54 °FClear.No wind49%30.14 "Hg10 mi
12:53 AM55 °FClear.No wind51%30.15 "Hg10 mi
11:53 PM
Thu, Mar 5
58 °FClear.No wind46%30.16 "Hg10 mi
10:53 PM61 °FClear.No wind38%30.16 "Hg10 mi
9:53 PM62 °FClear.No wind48%30.16 "Hg10 mi
8:53 PM63 °FClear.No wind47%30.16 "Hg10 mi
7:53 PM65 °FClear.5 mph34%30.17 "Hg10 mi
6:53 PM66 °FClear.6 mph32%30.17 "Hg10 mi
5:53 PM69 °FClear.7 mph25%30.17 "Hg10 mi
4:53 PM72 °FSunny.7 mph17%30.17 "Hg10 mi
3:53 PM73 °FSunny.7 mph22%30.17 "Hg10 mi
2:53 PM75 °FSunny.7 mph10%30.18 "Hg10 mi
1:53 PM75 °FSunny.6 mph9%30.19 "Hg10 mi
12:53 PM76 °FSunny.5 mph10%30.21 "Hg10 mi
11:53 AM74 °FSunny.No wind12%30.24 "Hg10 mi
10:53 AM71 °FSunny.No wind16%30.26 "Hg10 mi
9:53 AM70 °FSunny.No wind19%30.27 "Hg10 mi
8:53 AM66 °FSunny.3 mph25%30.27 "Hg10 mi
7:53 AM59 °FSunny.3 mph35%30.27 "Hg10 mi
6:53 AM52 °FSunny.No wind49%30.24 "Hg10 mi
5:53 AM53 °FClear.No wind43%30.22 "Hg10 mi
Weather by CustomWeather, © 2015

See weather overviewHow to use our weather pages